This is the latest recevied weather packets stored in our database for station/object K5GHS-1. If no packets are shown the sender has not sent any weather packets the latest 10 day(s).
| Time | Temp. | Humidity | Pressure | Rain* | Wind** | Luminosity | Snow |
|---|---|---|---|---|---|---|---|
| 1788714032 | 35° C | 52% | 1013.4 hPa | 0 mm | - | 699 W/m² | - |
| 1788713729 | 34.44° C | 51% | 1013.4 hPa | 0 mm | - | 744 W/m² | - |
| 1788713424 | 34.44° C | 52% | 1013.6 hPa | 0 mm | - | 713 W/m² | - |
| 1788713123 | 34.44° C | 51% | 1013.5 hPa | 0 mm | - | 727 W/m² | - |
| 1788712820 | 34.44° C | 52% | 1013.5 hPa | 0 mm | - | 696 W/m² | - |
| 1788712514 | 34.44° C | 51% | 1013.4 hPa | 0 mm | - | 692 W/m² | - |
| 1788712210 | 34.44° C | 53% | 1013.3 hPa | 0 mm | - | 698 W/m² | - |
| 1788711907 | 34.44° C | 52% | 1013.2 hPa | 0 mm | - | 669 W/m² | - |
| 1788711602 | 33.89° C | 54% | 1013.3 hPa | 0 mm | - | 632 W/m² | - |
| 1788711302 | 33.89° C | 54% | 1013.2 hPa | 0 mm | - | 649 W/m² | - |
| 1788711000 | 33.89° C | 55% | 1013.1 hPa | 0 mm | - | 659 W/m² | - |
| 1788710695 | 33.89° C | 55% | 1013.3 hPa | 0 mm | - | 682 W/m² | - |
| 1788710393 | 34.44° C | 55% | 1013.1 hPa | 0 mm | - | 651 W/m² | - |
| 1788710125 | 33.89° C | 55% | 1013.3 hPa | 0 mm | - | 648 W/m² | - |
| 1788709788 | 33.89° C | 60% | 1013.1 hPa | 0 mm | - | 603 W/m² | - |
| 1788709483 | 33.33° C | 58% | 1013.3 hPa | 0 mm | - | 573 W/m² | - |
| 1788709181 | 33.33° C | 61% | 1013 hPa | 0 mm | - | 563 W/m² | - |
| 1788708880 | 33.33° C | 62% | 1013.1 hPa | 0 mm | - | 542 W/m² | - |
| 1788708575 | 32.78° C | 63% | 1013.4 hPa | 0 mm | - | 517 W/m² | - |
| 1788708270 | 32.78° C | 65% | 1013 hPa | 0 mm | - | 452 W/m² | - |
| 1788707969 | 32.22° C | 66% | 1013.3 hPa | 0 mm | - | 444 W/m² | - |
| 1788707665 | 32.22° C | 69% | 1013.1 hPa | 0 mm | - | 413 W/m² | - |
| 1788707360 | 32.22° C | 68% | 1013.1 hPa | 0 mm | - | 383 W/m² | - |
| 1788707055 | 31.67° C | 69% | 1013 hPa | 0 mm | - | 354 W/m² | - |
| 1788706755 | 31.11° C | 71% | 1013.1 hPa | 0 mm | - | 340 W/m² | - |
* Rain latest hour (hover to see other rain measurements)
** Current wind speed in m/s (hover to see current wind gust speed)